Погода в Мугалжаре

Погода в Мугалжаре : погода сейчас, прогноз погоды и архив. Всё, что Вы хотите узнать о погоде в Мугалжаре!

Хотите узнать прогноз погоды в Мугалжаре? Тогда Вам сюда: Погода в Мугалжаре

Поиск расширенной информации на нашем сайте:

Полезная информация:

Другие новости

Новости СМИ2

Главная страница сайта

Новости сайта

03.07.2017

Напоминаем, что на нашем специализированном сайте Метеоцентр.Азия вы можете получить высокодетализированные автоматические прогнозы погоды по пунктам России, СНГ и мира в авиационном формате (включающие направление и скорость ветра, видимость, явления погоды, количество и форму облачности, нижнюю и верхнюю границу облачности).

Рекомендуем:

Погода в Мугалжаре - сегодня

Время (UTC), дата Ветер
(°,м/с) 
Видим.   Явления Облачность Т
(°С)
Тd
(°С)
f(%) Тe
(°С)
Pmin
(гПа)
dP
(гПа)
Po
(мм)
O2
(г/м3)
Тmin Tmax R s Состояние
почвы
18 17.03.19 110 (В) 11  20000 м  {снег}  10/10 600 м 
[Sc]
-3 -5.4 83 -9  1014.5  0.5  724  295    -0  0.0     
21 17.03.19 110 (В) 11-15{15}  20000 м    10/10 600 м 
[Sc]
-3.4 -6.2 81 -9  1014.1  -0.3  724  296           
00 18.03.19 110 (В) 9{15}  20000 м    10/10 600 м 
[Sc]
-2.4 -5.3 80 -8  1014.1  0.2  724  295           
03 18.03.19 110 (В) 4000 м  дымка  10/0 средняя 
[As op]
-3.1 -6.2 79 -8  1015.4  724  296        мокрый или
старый снег
10-40% 
06 18.03.19 110 (В) 0500 м  туман  ?/?  
-2.8 -4.4 89 -8  1015.8  0.4  725  295  -3.8         
09 18.03.19 090 (В) 4000 м  дымка{туман}  10/10 1000 м 
[Sc]
-1 -2.9 87 -6  1016.8  1.2  726  294           
12 18.03.19 090 (В) 20000 м  {туман}  10/10 600 м 
[Sc]
+0.6 -2 83 -4  1017.2  0.8  726  292           
15 18.03.19 090 (В) 20000 м    10/10 600 м 
[Sc]
-0 -3.4 78 -5  1018.2  0.7  727  293    +1       
18 18.03.19 110 (В) 10 км  слаб. морось  10/10 300 м 
[St]
+0.4 -1 90 -4  1018.5  0.3  727  293    +1       
21 18.03.19 110 (В) 20000 м  {морось}  10/10 300 м 
[St]
-0.4 -3.4 80 -5  1019.1  0.6  727  294           
00 19.03.19 110 (В) 20000 м    9/0 средняя 
[Ac trans]
-0.8 -4.3 77 -6  1019  -0.3  727  294           
03 19.03.19 090 (В) 20000 м    10/10 300 м 
[St]
-1.4 -4.4 80 -1  1021.4  2.3  729  296        мокрый или
старый снег
10-40% 
06 19.03.19 090 (В) 20000 м    9/9 1000 м 
[Sc]
+1 -2.2 79 -3  1020.8  -0.2  729  293  -1.9    0.7     
09 19.03.19 090 (В) 20000 м    9/0 средняя 
[Ac trans]
+4.2 -0.3 72 +2  1021.3  730  289           
12 19.03.19 090 (В) 20000 м    9/0 верхняя 
[Ci ing]
+5.6 -1.1 62 +5  1020.7  -0.2  729  288           
15 19.03.19 090 (В) 20000 м    9/0 средняя 
[Ac trans]
+1.6 -3.9 67 +2  1022  0.5  730  293    +5.9       
18 19.03.19 110 (В) 20000 м    9/0 средняя 
[Ac trans]
-0.4 -5.2 70 -3  1022.6  0.2  730  295    +5.9       
21 19.03.19 110 (В) 20000 м    9/0 верхняя 
[Ci ing]
-1.6 -6.1 71 -5  1023.2  0.2  730  297           
00 20.03.19 110 (В) 20000 м    9/0 верхняя 
[Ci ing]
-2.8 -6.9 73 -6  1022.1  -1.1  729  298           
03 20.03.19 110 (В) 20000 м    ясно 
-3.6 -7.6 74 -7  1022  -0.3  729  298           
06 20.03.19 070 (В) 20000 м    ясно 
-0.1 -6.6 62 -3  1022.2  0.9  730  295  -4.1         
09 20.03.19 070 (В) 20000 м    ясно 
+2.3 -4.8 59 +1  1021.4  -0.4  729  292           
12 20.03.19 000 (С) 45  0100 м    1/0 
-3.3   1020.8  -0.1  729             
15 20.03.19 090 (В) 20000 м    ясно 
+2.2 -4.6 61 +3  1021.4  0.1  729  292    +4.9       
18 20.03.19 090 (В) 20000 м    ясно 
+0 -5.6 66 -1  1021.6  -0.2  729  294    +4.9       
Время (UTC), дата Ветер
(°,м/с) 
Видим.   Явления Облачность Т
(°С)
Тd
(°С)
f(%) Тe
(°С)
Pmin
(гПа)
dP
(гПа)
Po
(мм)
O2
(г/м3)
Тmin Tmax R s Состояние
почвы

Для получения пояснительной информации подведите курсор к названию столбца.

ПОГОДА в Мугалжаре - архив

Всё, что Вы хотите узнать о погоде в Мугалжаре - удобно и подробно!

Выберите нужную дату (начиная с 1 января 2018* года) и нажмите кнопку "Найти".
Будут отображены архивные сводки погоды по пункту Мугалжар, начиная с указанной даты.


Отображать данные в формате CSV (для использования в таблицах Excel)


Внимание! Наш архив погоды предназначен исключительно для личного некоммерческого использования в познавательных целях. Если Вам необходимы официальные справки о состоянии погоды (для производственных, юридических, коммерческих и т.п. целей), обращайтесь в органы Росгидромета.

*Примечание: данная дата относится к архиву по метеостанциям СССР (Россия, СНГ, Балтия).
Архив по метеостанциям Зарубежной Европы и Азии (кроме Китая) хранится 10 дней, по другим регионам земного шара (Китай, Африка, Америка, Австралия, Океания) - 1 день.

Мугалжар - район местоположения метеостанции


Название, широта, долгота, высота метеостанции:
Мугалжар (Мугоджарская) 48.6°ш. 58.5°д. 398 м над ур. моря [Казахстан]

Дополнительная информация

В oтличие oт бoльшинства пoгoдных сайтoв мы публикуем пoдрoбную метеoинфoрмацию в детальнoм прoфессиoнальнoм фoрмате.

Характеристики температуры и влажнoсти вoздуха измеряются на высoте 2 м в тени вдали oт зданий и деревьев.
Скoрoсть ветра измеряется на высoте 10 м (на урoвне рoста челoвека скoрoсть ветра ниже в 1.5-2 раза). Если метеoстанция нахoдится в гoрoде или в лесу, тo скoрoсть ветра занижена на 2-4 м/с пo сравнению с oткрытым местoм. Скoрoсть ветра над акватoриями крупных рек и oзёр, а также на вершинах хoлмoв на 2-5 м/с выше, чем в oбычных услoвиях.
Атмoсфернoе давление в разных тoчках местнoсти мoжет значительнo oтличаться oт давления на метеoстанции, в зависимoсти oт услoвий рельефа (при пoдъёме на 10 м давление пoнижается примернo на 1 мм рт.ст.).